FW2897 Weather Reports


Display with metric or nautical units.
time (UTC)temp
F
wind
direction
speed
MPH
gust
MPH
rain 1hr
in
rain 24hr
in
rain mn
in
humidity
%
barometer
mb
20260904013158 80 288 0.0 0.0 0.00 0.96 0.96 79 1013.5
20260904012654 80 288 0.0 2.0 0.00 0.96 0.96 78 1013.6
20260904012156 81 288 0.0 2.0 0.00 0.96 0.96 78 1013.8
20260904011853 81 286 0.0 2.0 0.00 0.96 0.96 78 1014.0
20260904011129 80 288 0.0 2.0 0.00 0.96 0.96 79 1014.0
20260904010610 80 299 0.0 2.0 0.00 0.96 0.96 79 1014.2
20260904010110 80 288 0.0 2.0 0.00 0.96 0.96 79 1014.2
20260904010050 80 295 0.0 3.0 0.00 0.96 0.96 80 1014.3
20260904005100 80 260 0.0 3.0 0.00 0.96 0.96 80 1014.1
20260904004600 80 329 0.0 1.0 0.00 0.96 0.96 81 1014.1
20260904004101 80 282 0.0 1.0 0.00 0.96 0.96 81 1014.1
20260904003534 80 265 0.0 0.0 0.00 0.96 0.96 82 1014.1
20260904003018 80 264 0.0 0.0 0.00 0.96 0.96 82 1014.1
20260904002450 80 255 0.0 0.0 0.00 0.96 0.96 83 1014.0
20260904001930 79 255 0.0 0.0 0.00 0.96 0.96 83 1014.0
20260904001638 80 255 0.0 0.0 0.00 0.96 0.96 82 1013.8
20260904001121 80 255 0.0 0.0 0.00 0.96 0.96 82 1013.6
20260904000333 80 255 0.0 0.0 0.00 0.96 0.96 81 1013.5
20260904000058 80 255 0.0 0.0 0.00 0.96 0.96 81 1013.5
20260903235330 81 255 0.0 1.0 0.00 0.96 0.96 80 1013.4
20260903234843 81 255 0.0 1.0 0.00 0.96 0.96 80 1013.6
20260903234328 81 255 0.0 1.0 0.00 0.96 0.96 79 1013.6
20260903233827 81 255 0.0 1.0 0.00 0.96 0.96 79 1013.8
20260903233326 82 255 0.0 1.0 0.00 0.96 0.96 78 1013.7
20260903232805 82 255 0.0 1.0 0.00 0.96 0.96 78 1013.6
20260903232306 82 255 0.0 1.0 0.00 0.96 0.96 78 1013.8
20260903231803 82 255 0.0 1.0 0.00 0.96 0.96 77 1013.5
20260903231525 82 259 0.0 2.0 0.00 0.96 0.96 77 1013.4
20260903231233 82 286 0.0 2.0 0.00 0.96 0.96 77 1013.5
20260903230206 83 228 0.0 1.0 0.00 0.96 0.96 77 1013.4
20260903225639 83 228 0.0 2.0 0.00 0.96 0.96 77 1013.4
20260903225112 83 227 0.0 2.0 0.00 0.96 0.96 76 1013.5
20260903224548 83 201 0.0 2.0 0.00 0.96 0.96 76 1013.5
20260903224022 84 239 0.0 2.0 0.00 0.96 0.96 75 1013.5
20260903223517 84 359 0.0 4.0 0.00 0.96 0.96 75 1013.4
20260903223017 84 230 1.0 4.0 0.00 0.96 0.96 75 1013.4
20260903222451 84 268 1.0 5.0 0.00 0.96 0.96 75 1013.5
20260903221922 85 286 1.0 5.0 0.00 0.96 0.96 75 1013.3
20260903221421 85 243 1.0 9.0 0.00 0.96 0.96 76 1013.5
20260903220916 85 243 1.0 9.0 0.00 0.96 0.96 75 1013.6
20260903220414 85 179 1.0 7.0 0.00 0.96 0.96 76 1013.5
20260903220115 85 248 1.0 7.0 0.00 0.96 0.96 76 1013.6
20260903215321 85 223 1.0 7.0 0.00 0.96 0.96 76 1013.6
20260903214757 85 231 1.0 7.0 0.00 0.96 0.96 75 1013.5
20260903214227 85 259 1.0 5.0 0.00 0.96 0.96 75 1013.5
20260903213728 85 274 2.0 5.0 0.00 0.96 0.96 75 1013.4
20260903213213 85 203 1.0 4.0 0.00 0.96 0.96 74 1013.3
20260903212718 86 202 1.0 5.0 0.00 0.96 0.96 74 1013.3
20260903212211 86 227 0.0 5.0 0.00 0.96 0.96 74 1013.3
20260903211708 86 251 1.0 6.0 0.00 0.96 0.96 73 1013.4
20260903211201 86 325 1.0 6.0 0.00 0.96 0.96 73 1013.4
20260903210657 86 274 1.0 4.0 0.00 0.96 0.96 73 1013.4
20260903210155 86 327 1.0 4.0 0.00 0.96 0.96 74 1013.6
20260903205917 86 198 1.0 4.0 0.00 0.96 0.96 74 1013.6
20260903205128 86 233 1.0 5.0 0.00 0.96 0.96 74 1013.7
20260903204826 85 243 2.0 7.0 0.00 0.96 0.96 75 1013.7
20260903204034 85 226 2.0 7.0 0.00 0.96 0.96 76 1013.7
20260903203545 85 243 2.0 9.0 0.00 0.96 0.96 75 1013.7
20260903203005 85 226 2.0 9.0 0.00 0.96 0.96 74 1013.8
20260903202438 85 224 3.0 9.0 0.00 0.96 0.96 75 1013.9
20260903201937 85 234 3.0 9.0 0.00 0.96 0.96 74 1014.0
20260903201408 85 124 3.0 11.0 0.00 0.96 0.96 75 1014.1
20260903200919 85 191 3.0 11.0 0.00 0.96 0.96 74 1014.1
20260903200605 85 261 3.0 10.0 0.00 0.96 0.96 74 1014.0
20260903195835 85 208 3.0 9.0 0.00 0.96 0.96 74 1014.1
20260903195535 85 234 4.0 11.0 0.00 0.96 0.96 74 1014.1
20260903194809 85 212 4.0 11.0 0.00 0.96 0.96 73 1014.3
20260903194501 86 344 3.0 7.0 0.00 0.96 0.96 72 1014.3
20260903193711 87 225 2.0 8.0 0.00 0.96 0.96 73 1014.3
20260903193211 87 140 2.0 8.0 0.00 0.96 0.96 70 1014.3
20260903192910 88 242 1.0 6.0 0.00 0.96 0.96 69 1014.5
20260903192140 88 181 0.0 4.0 0.00 0.96 0.96 70 1014.5
20260903191613 87 169 1.0 6.0 0.00 0.96 0.96 70 1014.6
20260903191110 87 233 1.0 6.0 0.00 0.96 0.96 69 1014.7
20260903190541 87 256 1.0 4.0 0.00 0.96 0.96 69 1014.8
20260903190531 87 9 1.0 3.0 0.00 0.96 0.96 69 1015.0
20260903185511 88 247 1.0 5.0 0.00 0.96 0.96 68 1014.9
20260903185457 88 296 1.0 4.0 0.00 0.97 0.96 70 1015.0
20260903184457 87 229 1.0 5.0 0.00 0.98 0.96 69 1015.0
20260903184226 87 176 1.0 5.0 0.00 0.98 0.96 70 1015.0
20260903183725 87 274 1.0 7.0 0.00 0.98 0.96 71 1015.2
20260903182930 87 262 1.0 5.0 0.00 0.99 0.96 71 1015.1
20260903182441 86 231 2.0 5.0 0.00 0.99 0.96 72 1015.1
20260903181902 86 282 1.0 5.0 0.00 1.00 0.96 70 1015.1
20260903181338 86 232 1.0 6.0 0.00 1.01 0.96 71 1015.1
20260903180840 86 323 1.0 6.0 0.00 1.02 0.96 71 1015.1
20260903180315 85 217 1.0 6.0 0.00 1.04 0.96 72 1015.1
20260903175747 85 288 1.0 6.0 0.00 1.06 0.96 72 1015.2
20260903175249 85 303 1.0 4.0 0.00 1.07 0.96 73 1015.2
20260903174731 85 322 1.0 7.0 0.00 1.09 0.96 72 1015.2
20260903174232 85 88 2.0 7.0 0.00 1.09 0.96 70 1015.3
20260903174001 85 9 2.0 7.0 0.00 1.09 0.96 73 1015.4
20260903173233 84 279 2.0 7.0 0.00 1.09 0.96 74 1015.4
20260903172721 84 2 2.0 8.0 0.00 1.09 0.96 75 1015.5
20260903172224 83 289 1.0 8.0 0.00 1.09 0.96 75 1015.5
20260903171721 84 297 1.0 6.0 0.00 1.09 0.96 75 1015.6
20260903171219 84 257 2.0 7.0 0.00 1.09 0.96 75 1016.0
20260903170719 84 223 2.0 7.0 0.00 1.09 0.96 75 1016.0
20260903170440 83 209 1.0 6.0 0.00 1.09 0.96 75 1016.0
20260903165701 83 229 1.0 7.0 0.00 1.09 0.96 75 1016.1
20260903165201 83 300 2.0 7.0 0.00 1.09 0.96 76 1016.3
20260903164702 83 324 2.0 6.0 0.00 1.09 0.96 77 1016.3
20260903164137 83 281 2.0 6.0 0.00 1.09 0.96 76 1016.5
20260903163906 84 316 1.0 6.0 0.00 1.09 0.96 77 1016.3
20260903163120 84 70 1.0 6.0 0.00 1.09 0.96 77 1016.4
20260903162622 83 299 1.0 6.0 0.00 1.09 0.96 78 1016.5
20260903162119 83 358 1.0 8.0 0.00 1.09 0.96 80 1016.6
20260903161605 82 314 1.0 8.0 0.00 1.09 0.96 81 1016.9
20260903161102 82 354 1.0 6.0 0.00 1.09 0.96 82 1017.1
20260903160605 82 246 1.0 6.0 0.00 1.09 0.96 81 1017.2
20260903160323 82 285 1.0 6.0 0.00 1.09 0.96 82 1016.9
20260903155548 81 271 1.0 6.0 0.00 1.09 0.96 82 1017.0
20260903155023 81 187 2.0 7.0 0.00 1.09 0.96 84 1017.4
20260903154523 80 262 2.0 7.0 0.00 1.09 0.96 85 1017.4
20260903154021 80 302 1.0 5.0 0.00 1.09 0.96 84 1017.6
20260903153512 80 314 1.0 5.0 0.00 1.09 0.96 84 1017.6
20260903152945 80 310 1.0 4.0 0.00 1.09 0.96 85 1017.3
20260903152446 80 221 1.0 4.0 0.00 1.09 0.96 86 1017.4
20260903151920 80 300 1.0 4.0 0.00 1.09 0.96 86 1017.5
20260903151617 80 293 1.0 4.0 0.00 1.09 0.96 86 1017.4
20260903151314 79 313 1.0 4.0 0.00 1.09 0.96 87 1017.3
20260903150324 79 236 1.0 4.0 0.00 1.09 0.96 87 1017.2
20260903150045 79 287 1.0 5.0 0.00 1.09 0.96 87 1017.1
20260903145543 79 290 1.0 5.0 0.00 1.09 0.96 88 1017.1
20260903144812 79 315 0.0 3.0 0.00 1.09 0.96 88 1017.0
20260903144314 78 278 0.0 2.0 0.00 1.09 0.96 89 1016.9
20260903143743 78 239 1.0 4.0 0.00 1.09 0.96 89 1016.7
20260903143241 78 203 0.0 4.0 0.00 1.09 0.96 90 1016.7
20260903142938 77 285 0.0 3.0 0.00 1.09 0.96 91 1016.8
20260903142149 77 279 1.0 4.0 0.00 1.09 0.96 91 1016.8
20260903141624 76 269 1.0 4.0 0.00 1.09 0.96 92 1016.9
20260903141107 76 231 1.0 4.0 0.00 1.09 0.96 92 1016.9
20260903140820 76 286 1.0 2.0 0.00 1.09 0.96 94 1016.9
20260903140054 76 124 1.0 4.0 0.00 1.09 0.96 93 1017.0
20260903135805 76 292 0.0 4.0 0.00 1.09 0.96 93 1016.9
20260903135022 76 317 0.0 4.0 0.00 1.09 0.96 94 1016.9
20260903134512 75 235 0.0 4.0 0.00 1.09 0.96 94 1016.7
20260903134011 75 229 0.0 2.0 0.00 1.09 0.96 95 1016.6
20260903133443 75 263 1.0 3.0 0.00 1.09 0.96 95 1016.6
20260903132940 74 242 1.0 5.0 0.00 1.09 0.96 95 1016.4
20260903132436 74 170 0.0 5.0 0.00 1.09 0.96 95 1016.2
20260903131934 74 239 0.0 5.0 0.00 1.09 0.96 95 1016.1
20260903131407 74 200 0.0 3.0 0.00 1.09 0.96 95 1016.2
20260903130904 73 218 0.0 3.0 0.00 1.09 0.96 95 1016.2
20260903130403 73 256 0.0 2.0 0.00 1.09 0.96 95 1016.5
20260903125842 73 278 0.0 2.0 0.00 1.09 0.96 95 1016.6
20260903125342 73 332 0.0 2.0 0.00 1.09 0.96 95 1016.6
20260903124840 73 345 0.0 2.0 0.00 1.09 0.96 95 1016.7
20260903124342 73 282 0.0 2.0 0.00 1.09 0.96 95 1016.6
20260903123831 73 161 1.0 6.0 0.00 1.09 0.96 95 1016.5
20260903123332 72 175 1.0 6.0 0.00 1.09 0.96 95 1016.6
20260903122804 72 178 0.0 2.0 0.00 1.09 0.96 95 1016.8
20260903122314 72 328 0.0 6.0 0.01 1.09 0.96 95 1016.9
20260903121739 72 116 1.0 6.0 0.01 1.09 0.96 95 1017.1
20260903121209 72 291 0.0 5.0 0.01 1.09 0.96 95 1017.0
20260903120707 72 309 0.0 3.0 0.01 1.09 0.96 95 1016.9
20260903120139 71 287 0.0 3.0 0.01 1.09 0.96 95 1016.9
20260903115638 71 233 0.0 3.0 0.01 1.09 0.96 95 1017.2
20260903115109 71 168 0.0 3.0 0.01 1.09 0.96 95 1017.8
20260903114605 71 228 0.0 2.0 0.01 1.09 0.96 95 1018.0
20260903114308 71 186 0.0 1.0 0.01 1.09 0.96 95 1018.1
20260903113512 71 288 0.0 5.0 0.01 1.09 0.96 95 1018.3
20260903113011 71 214 0.0 5.0 0.01 1.09 0.96 95 1018.1
20260903112738 71 194 0.0 1.0 0.00 1.08 0.95 95 1018.1
20260903111940 71 215 0.0 0.0 0.00 1.08 0.95 95 1018.5
20260903111438 71 198 0.0 0.0 0.00 1.08 0.95 95 1018.5
20260903110937 71 314 0.0 0.0 0.00 1.08 0.95 95 1018.5
20260903110437 71 314 0.0 0.0 0.00 1.08 0.95 95 1018.3
20260903105927 71 314 0.0 0.0 0.00 1.08 0.95 95 1018.3
20260903105423 71 312 0.0 0.0 0.00 1.08 0.95 95 1018.3
20260903104857 71 312 0.0 0.0 0.00 1.08 0.95 95 1018.3
20260903104351 71 312 0.0 1.0 0.00 1.08 0.95 95 1018.1
20260903103848 71 312 0.0 1.0 0.00 1.08 0.95 95 1018.1
20260903103344 71 222 0.0 3.0 0.00 1.08 0.95 95 1017.8
20260903102842 71 214 0.0 3.0 0.00 1.08 0.95 95 1017.8
20260903102351 71 229 0.0 0.0 0.08 1.08 0.95 95 1017.9
20260903101820 71 245 0.0 0.0 0.11 1.08 0.95 95 1018.0
20260903101318 71 245 0.0 0.0 0.11 1.08 0.95 95 1018.1
20260903100817 71 245 0.0 0.0 0.11 1.08 0.95 95 1018.2
20260903100544 71 245 0.0 0.0 0.12 1.08 0.95 95 1018.2
20260903095757 71 245 0.0 0.0 0.12 1.08 0.95 95 1018.4
20260903095231 71 245 0.0 0.0 0.23 1.08 0.95 95 1018.5
20260903094729 71 245 0.0 0.0 0.34 1.08 0.95 95 1018.2
20260903094455 71 241 0.0 0.0 0.35 1.08 0.95 95 1018.4
20260903093730 71 241 0.0 0.0 0.35 1.08 0.95 95 1018.2
20260903093206 71 241 0.0 0.0 0.35 1.08 0.95 95 1018.5
20260903092919 71 241 0.0 0.0 0.34 1.07 0.94 95 1018.6
20260903092154 71 238 0.0 0.0 0.24 0.97 0.85 95 1018.8
20260903091642 71 238 0.0 0.0 0.24 0.97 0.84 94 1018.8
20260903091129 71 206 0.0 0.0 0.24 0.97 0.84 94 1018.6
20260903090600 71 195 0.0 0.0 0.24 0.97 0.84 94 1018.7
20260903090105 71 195 0.0 2.0 0.23 0.96 0.83 94 1018.7
20260903085551 71 199 0.0 3.0 0.17 0.90 0.79 94 1018.8
20260903085052 71 249 0.0 5.0 0.05 0.78 0.67 94 1019.1
20260903084534 71 326 0.0 5.0 0.00 0.73 0.60 94 1019.7
20260903084033 71 293 0.0 5.0 0.00 0.73 0.60 94 1020.0
20260903083535 71 352 0.0 4.0 0.00 0.73 0.60 94 1019.4
20260903083015 71 322 0.0 1.0 0.00 0.73 0.60 94 1019.0
20260903082738 71 155 0.0 0.0 0.00 0.73 0.60 94 1018.0
20260903082014 71 155 0.0 0.0 0.00 0.73 0.60 94 1017.8
20260903081511 71 155 0.0 0.0 0.00 0.73 0.60 94 1017.8
20260903081010 71 155 0.0 0.0 0.00 0.73 0.60 94 1017.9
20260903080510 71 155 0.0 0.0 0.00 0.73 0.60 94 1018.1
20260903075946 71 155 0.0 0.0 0.00 0.73 0.60 94 1018.3
20260903075448 71 155 0.0 0.0 0.00 0.73 0.60 94 1018.4
20260903074922 71 155 0.0 0.0 0.00 0.73 0.60 94 1018.1
20260903074359 71 155 0.0 0.0 0.00 0.73 0.60 94 1018.2
20260903073831 71 155 0.0 0.0 0.00 0.73 0.60 94 1018.1
20260903073331 71 155 0.0 0.0 0.00 0.73 0.60 94 1018.1
20260903072803 71 155 0.0 1.0 0.00 0.73 0.60 94 1018.1
20260903072301 71 155 0.0 1.0 0.01 0.73 0.60 94 1018.1
20260903071755 71 102 0.0 0.0 0.02 0.73 0.60 94 1018.1
20260903071252 71 102 0.0 0.0 0.07 0.73 0.60 94 1018.2
20260903070728 71 102 0.0 0.0 0.11 0.73 0.60 94 1018.2
20260903070200 71 102 0.0 0.0 0.18 0.73 0.60 94 1018.3
20260903065655 71 102 0.0 0.0 0.18 0.73 0.60 94 1018.2
20260903065355 72 102 0.0 0.0 0.19 0.73 0.60 94 1018.2
20260903064603 71 102 0.0 0.0 0.23 0.73 0.60 94 1018.3
20260903064035 71 102 0.0 0.0 0.57 0.73 0.60 94 1018.2
20260903063534 71 102 0.0 1.0 0.60 0.73 0.60 94 1018.3
20260903063031 71 102 0.0 1.0 0.60 0.73 0.60 94 1018.4
20260903062520 71 102 0.0 1.0 0.60 0.73 0.60 93 1018.2
20260903062021 71 103 0.0 1.0 0.58 0.71 0.58 93 1018.1
20260903061450 72 98 0.0 1.0 0.54 0.67 0.55 93 1018.1
20260903060949 72 132 0.0 3.0 0.52 0.65 0.52 93 1018.9
20260903060421 72 115 0.0 1.0 0.42 0.55 0.42 93 1019.2
20260903055857 72 263 0.0 1.0 0.42 0.55 0.42 93 1019.7
20260903055329 72 280 0.0 1.0 0.41 0.54 0.41 93 1019.5
20260903054801 72 277 0.0 1.0 0.40 0.53 0.40 92 1019.6
20260903054258 72 161 0.0 4.0 0.20 0.33 0.20 92 1018.7
20260903053734 72 332 0.0 4.0 0.00 0.13 0.00 92 1020.3
20260903053207 72 106 0.0 1.0 0.00 0.13 0.00 92 1019.0
20260903052641 72 113 0.0 1.0 0.00 0.13 0.00 92 1018.2
20260903052130 72 94 0.0 2.0 0.00 0.13 0.00 92 1018.5
20260903051626 72 91 0.0 2.0 0.00 0.13 0.00 92 1018.5
20260903051125 72 150 0.0 2.0 0.00 0.13 0.00 92 1018.4
20260903050636 72 141 0.0 1.0 0.00 0.13 0.00 92 1018.5
20260903050109 72 134 0.0 1.0 0.00 0.13 0.00 92 1018.5
20260903045547 72 138 0.0 1.0 0.00 0.13 0.00 92 1018.5
20260903045046 73 138 0.0 1.0 0.00 0.13 0.00 92 1018.5
20260903044531 72 138 0.0 1.0 0.00 0.13 0.00 92 1018.4
20260903044027 72 143 0.0 0.0 0.00 0.13 0.00 92 1018.5
20260903043531 72 138 0.0 0.0 0.00 0.14 0.00 92 1018.7
20260903043026 72 138 0.0 0.0 0.00 0.14 0.00 92 1018.8
20260903042526 72 139 0.0 1.0 0.00 0.14 0.00 92 1018.7
20260903041955 72 128 0.0 1.0 0.00 0.14 0.00 92 1018.7
20260903041717 72 109 0.0 1.0 0.00 0.14 0.00 92 1018.8
20260903040953 73 89 0.0 0.0 0.00 0.14 0.00 92 1019.0
20260903040505 73 195 0.0 0.0 0.00 0.14 0.00 92 1019.1
20260903040205 73 177 0.0 0.0 0.00 0.14 0.14 92 1019.1
20260903035441 73 177 0.0 0.0 0.00 0.14 0.14 92 1019.2
20260903034913 73 177 0.0 0.0 0.00 0.14 0.14 91 1019.1
20260903034410 73 177 0.0 0.0 0.00 0.14 0.14 91 1019.2
20260903033843 73 177 0.0 0.0 0.00 0.14 0.14 92 1019.3
20260903033607 73 177 0.0 0.0 0.00 0.14 0.14 91 1019.3
20260903032813 73 226 0.0 0.0 0.00 0.14 0.14 92 1019.2
20260903032310 73 245 0.0 0.0 0.00 0.14 0.14 91 1019.2
20260903031746 73 245 0.0 0.0 0.00 0.14 0.14 92 1019.3
20260903031436 73 229 0.0 1.0 0.00 0.14 0.14 91 1019.1
20260903030716 73 131 0.0 1.0 0.00 0.14 0.14 92 1019.3
20260903030148 73 136 0.0 1.0 0.00 0.14 0.14 92 1019.3
20260903025623 73 136 0.0 1.0 0.00 0.14 0.14 92 1019.3
20260903025349 73 222 0.0 1.0 0.00 0.14 0.14 92 1019.2
20260903024813 73 54 0.0 1.0 0.00 0.14 0.14 92 1019.4
20260903024051 73 52 0.0 2.0 0.00 0.14 0.14 91 1019.5
20260903023527 73 96 0.0 1.0 0.00 0.15 0.14 91 1019.1
20260903023027 73 88 0.0 2.0 0.00 0.15 0.14 91 1019.3
20260903022524 73 101 0.0 2.0 0.00 0.15 0.14 91 1019.4
20260903022027 73 82 0.0 1.0 0.00 0.15 0.14 91 1019.1
20260903021458 73 81 0.0 2.0 0.00 0.15 0.14 91 1019.0
20260903021222 73 74 0.0 2.0 0.00 0.15 0.14 91 1019.0
20260903020927 73 93 0.0 2.0 0.00 0.15 0.14 91 1018.8
20260903015928 73 92 0.0 2.0 0.00 0.15 0.14 91 1018.8
20260903015430 73 131 0.0 1.0 0.00 0.15 0.14 91 1018.8
20260903014905 73 124 0.0 1.0 0.00 0.15 0.14 91 1019.1
20260903014405 73 84 0.0 3.0 0.00 0.15 0.14 91 1019.2
20260903013843 73 96 0.0 3.0 0.00 0.15 0.14 91 1019.1
20260903013343 73 98 0.0 3.0 0.00 0.15 0.14 91 1019.1